Location: Arrien
(42.8963°N, 1.0429°E)
Time: 20:49:23
(UTC+00:00)

SL-16 R/B - Pass Details

Date: 17 March 2026
Orbit: 841 x 845 km, 71.0° (Epoch: 11 April)

Event Time Altitude Azimuth Distance (km) Brightness Sun altitude
Exits shadow 01:25:40 11° 359° (N) 2,389 5.0 -44.7°
Drops below altitude 10° 01:25:58 10° 1° (N) 2,472 5.1 -44.7°
Sets 01:28:56 0° 16° (NNE) 3,412 6.1 -44.4°
